Tucson, AZ

11:49 PM MST on September 24, 2016 (GMT -0700)
Tucson International

Weather History for KTUS - January, 2012

Change the Weather History Date:

Monday, January 16, 2012

  Actual Average Record
Temperature  
Mean Temperature 55 °F 53 °F  
Max Temperature 63 °F 66 °F 84 °F (2000)
Min Temperature 47 °F 40 °F 22 °F (1919)
Degree Days  
Heating Degree Days 10 12  
Month to date heating degree days 146 206  
Since 1 July heating degree days 824 817  
Cooling Degree Days 0 0  
Month to date cooling degree days 2 0  
Year to date cooling degree days 2 0  
Growing Degree Days 5 (Base 50)    
Moisture  
Dew Point 47 °F    
Average Humidity 78    
Maximum Humidity 100    
Minimum Humidity 55    
Precipitation  
Precipitation 0.05 in 0.03 in 0.37 in (1987)
Month to date precipitation 0.14 0.48  
Year to date precipitation 0.14 0.48  
Snow  
Snow 0.00 in - - ()
Month to date snowfall 0.0  
Snow Depth 0.00 in    
Sea Level Pressure  
Sea Level Pressure 30.05 in    
Wind  
Wind Speed 4 mph (South)    
Max Wind Speed 15 mph    
Max Gust Speed 22 mph    
Visibility 10 miles    
Events Rain    
T = Trace of Precipitation, MM = Missing Value Source: NWS Daily Summary

Daily Weather History Graph

Daily Weather History Graph

Search for Another Location

Airport or City:

Trip Planner

Search our weather history database for the weather conditions in past years. The results will help you decide how hot, cold, wet, or windy it might be!

Date:

Astronomy

Jan. 16, 2012 Rise Set
Actual Time 7:24 AM MST 5:42 PM MST
Civil Twilight 6:58 AM MST 6:08 PM MST
Nautical Twilight 6:28 AM MST 6:38 PM MST
Astronomical Twilight 5:58 AM MST 7:08 PM MST
Moon 12:44 AM MST (1/16) 11:53 AM MST (1/16)
Length of Visible Light 11h 10m
Length of Day
10h 17m
Last Quarter, 45% of the Moon is Illuminated
Jan 16
Last Quarter
Jan 23
New
Jan 30
First Quarter
Feb 7
Full
Feb 14
Last Quarter

Hourly Weather History & Observations

Time (MST) Temp. Windchill Dew Point Humidity Pressure Visibility Wind Dir Wind Speed Gust Speed Precip Events Conditions
12:53 AM 52.0 °F - 51.1 °F 97% 30.05 in 10.0 mi East 3.5 mph - 0.02 in Rain Light Rain
1:53 AM 52.0 °F - 51.1 °F 97% 30.04 in 10.0 mi ESE 3.5 mph - 0.00 in   Overcast
2:53 AM 51.1 °F - 51.1 °F 100% 30.03 in 7.0 mi South 4.6 mph - 0.01 in Rain Light Rain
3:53 AM 52.0 °F - 51.1 °F 97% 30.01 in 10.0 mi ESE 6.9 mph - 0.00 in   Overcast
4:53 AM 52.0 °F - 48.0 °F 86% 30.00 in 10.0 mi South 6.9 mph - 0.00 in   Overcast
5:53 AM 53.1 °F - 46.9 °F 80% 30.02 in 10.0 mi South 6.9 mph - 0.00 in   Overcast
6:53 AM 52.0 °F - 48.0 °F 86% 30.04 in 10.0 mi Calm Calm - N/A   Overcast
7:53 AM 53.1 °F - 48.9 °F 86% 30.04 in 10.0 mi Calm Calm - N/A   Overcast
8:53 AM 54.0 °F - 48.9 °F 83% 30.07 in 10.0 mi NNW 3.5 mph - N/A   Mostly Cloudy
9:53 AM 55.9 °F - 46.9 °F 72% 30.08 in 10.0 mi Variable 4.6 mph - N/A   Overcast
10:53 AM 55.9 °F - 48.9 °F 77% 30.08 in 10.0 mi North 4.6 mph - 0.01 in Rain Light Rain
11:53 AM 57.0 °F - 48.0 °F 72% 30.06 in 10.0 mi Calm Calm - 0.01 in   Overcast
12:53 PM 57.9 °F - 48.0 °F 70% 30.04 in 10.0 mi Calm Calm - N/A   Overcast
1:53 PM 57.9 °F - 46.9 °F 67% 30.02 in 10.0 mi NW 10.4 mph - N/A   Overcast
2:53 PM 59.0 °F - 46.0 °F 62% 30.02 in 10.0 mi NNW 5.8 mph - N/A   Overcast
3:53 PM 62.1 °F - 46.9 °F 58% 30.01 in 10.0 mi WNW 8.1 mph - N/A   Mostly Cloudy
4:53 PM 61.0 °F - 45.0 °F 56% 30.02 in 10.0 mi West 8.1 mph - N/A   Partly Cloudy
5:53 PM 57.9 °F - 45.0 °F 62% 30.03 in 10.0 mi West 6.9 mph - N/A   Clear
6:53 PM 55.0 °F - 46.0 °F 72% 30.06 in 10.0 mi East 3.5 mph - N/A   Clear
7:53 PM 54.0 °F - 46.0 °F 75% 30.08 in 10.0 mi South 3.5 mph - N/A   Partly Cloudy
8:53 PM 53.1 °F - 46.0 °F 77% 30.09 in 10.0 mi Calm Calm - N/A   Overcast
9:53 PM 51.1 °F - 46.0 °F 83% 30.10 in 10.0 mi Calm Calm - N/A   Scattered Clouds
10:53 PM 48.2 °F - 44.6 °F 87% 30.15 in 10.0 mi Calm Calm - N/A   Clear
11:53 PM 46.4 °F 45.2 °F 44.6 °F 93% 30.16 in 10.0 mi SSE 3.5 mph - N/A   Clear